Location: Beekmeers
(50.8953°N, 3.6968°E)
Time: 07:39:56
(UTC+00:00)

SENTINEL 1B - Pass Details

Date: 21 October 2025
Orbit: 561 x 585 km, 98.1° (Epoch: 17 November)

Event Time Altitude Azimuth Distance (km) Brightness Sun altitude
Exits shadow 19:50:26 19° 345° (NNW) 1,410 7.5 -30.3°
Drops below altitude 10° 19:51:41 10° 346° (NNW) 1,918 8.3 -30.5°
Sets 19:53:51 0° 346° (NNW) 2,820 9.2 -30.8°
